Time,TemperatureF,DewpointF,PressureIn,WindDirection,WindDirectionDegrees,WindSpeedMPH,WindSpeedGustMPH,Humidity,HourlyPrecipIn,Conditions,Clouds,dailyrainin,SoftwareType,DateUTC
2013-07-04 00:00:00,68.9,54.0,29.76,NW,315,0.0,0.0,59,0.00,,,0.00,LWC V2.11 B50,2013-07-04 06:00:00,
2013-07-04 00:05:00,68.8,53.4,29.76,NW,315,0.0,0.0,58,0.00,,,0.00,LWC V2.11 B50,2013-07-04 06:05:00,
2013-07-04 00:10:00,68.8,52.9,29.76,WSW,258,0.0,1.0,57,0.00,,,0.00,LWC V2.11 B50,2013-07-04 06:10:00,
2013-07-04 00:15:00,69.0,52.6,29.76,WSW,248,0.0,0.0,56,0.00,,,0.00,LWC V2.11 B50,2013-07-04 06:15:00,
2013-07-04 00:20:00,69.2,53.3,29.76,SW,233,0.0,0.0,57,0.00,,,0.00,LWC V2.11 B50,2013-07-04 06:20:00,
2013-07-04 00:25:00,69.3,53.4,29.75,SW,232,0.0,2.0,57,0.00,,,0.00,LWC V2.11 B50,2013-07-04 06:25:00,
2013-07-04 00:30:00,69.2,53.8,29.75,SW,219,0.0,2.0,58,0.00,,,0.00,LWC V2.11 B50,2013-07-04 06:30:00,
2013-07-04 00:35:00,69.1,54.2,29.75,SSW,204,0.0,1.0,59,0.00,,,0.00,LWC V2.11 B50,2013-07-04 06:35:00,
2013-07-04 00:40:00,69.0,54.5,29.75,South,174,0.0,1.0,60,0.00,,,0.00,LWC V2.11 B50,2013-07-04 06:40:00,
2013-07-04 00:45:00,68.8,54.3,29.75,SW,221,0.0,0.0,60,0.00,,,0.00,LWC V2.11 B50,2013-07-04 06:45:00,
2013-07-04 00:50:00,68.6,54.6,29.75,WSW,250,0.0,3.0,61,0.00,,,0.00,LWC V2.11 B50,2013-07-04 06:50:00,
2013-07-04 00:55:00,68.4,54.4,29.75,SW,221,0.0,2.0,61,0.00,,,0.00,LWC V2.11 B50,2013-07-04 06:55:00,
2013-07-04 01:00:00,68.2,54.7,29.75,SSW,202,0.0,1.0,62,0.00,,,0.00,LWC V2.11 B50,2013-07-04 07:00:00,
2013-07-04 01:05:00,68.0,54.9,29.75,SSW,202,0.0,0.0,63,0.00,,,0.00,LWC V2.11 B50,2013-07-04 07:05:00,
2013-07-04 01:10:00,67.8,55.2,29.75,SSE,162,0.0,1.0,64,0.00,,,0.00,LWC V2.11 B50,2013-07-04 07:10:00,
2013-07-04 01:15:00,67.6,55.0,29.75,SSE,162,0.0,0.0,64,0.00,,,0.01,LWC V2.11 B50,2013-07-04 07:15:00,
2013-07-04 01:20:00,67.4,55.2,29.76,SSE,162,0.0,0.0,65,0.00,,,0.01,LWC V2.11 B50,2013-07-04 07:20:00,
2013-07-04 01:25:00,67.2,55.0,29.76,SSE,162,0.0,0.0,65,0.00,,,0.01,LWC V2.11 B50,2013-07-04 07:25:00,
2013-07-04 01:30:00,66.9,55.2,29.76,SSE,162,0.0,0.0,66,0.00,,,0.01,LWC V2.11 B50,2013-07-04 07:30:00,
2013-07-04 01:35:00,66.7,55.0,29.76,SSE,162,0.0,0.0,66,0.00,,,0.01,LWC V2.11 B50,2013-07-04 07:35:00,
2013-07-04 01:40:00,66.7,55.4,29.76,SSE,162,0.0,0.0,67,0.00,,,0.01,LWC V2.11 B50,2013-07-04 07:40:00,
2013-07-04 01:45:00,66.5,55.2,29.75,SSE,162,0.0,0.0,67,0.00,,,0.01,LWC V2.11 B50,2013-07-04 07:45:00,
2013-07-04 01:50:00,66.3,55.0,29.75,SSE,162,0.0,0.0,67,0.00,,,0.01,LWC V2.11 B50,2013-07-04 07:50:00,
2013-07-04 01:55:00,66.1,55.2,29.75,SSE,162,0.0,0.0,68,0.00,,,0.01,LWC V2.11 B50,2013-07-04 07:55:00,
2013-07-04 02:00:00,65.9,55.4,29.75,SSE,162,0.0,0.0,69,0.00,,,0.01,LWC V2.11 B50,2013-07-04 08:00:00,
2013-07-04 02:05:00,65.8,55.7,29.75,SSE,162,0.0,0.0,70,0.00,,,0.01,LWC V2.11 B50,2013-07-04 08:05:00,
2013-07-04 02:10:00,65.7,55.6,29.74,SSE,162,0.0,0.0,70,0.00,,,0.01,LWC V2.11 B50,2013-07-04 08:10:00,
2013-07-04 02:15:00,65.6,55.1,29.74,SSE,162,0.0,0.0,69,0.00,,,0.01,LWC V2.11 B50,2013-07-04 08:15:00,
2013-07-04 02:20:00,65.8,54.9,29.74,SSE,162,0.0,1.0,68,0.00,,,0.01,LWC V2.11 B50,2013-07-04 08:20:00,
2013-07-04 02:25:00,65.9,55.0,29.74,SSE,162,0.0,0.0,68,0.00,,,0.01,LWC V2.11 B50,2013-07-04 08:25:00,
2013-07-04 02:30:00,66.1,55.2,29.74,SSE,162,0.0,0.0,68,0.00,,,0.01,LWC V2.11 B50,2013-07-04 08:30:00,
2013-07-04 02:35:00,66.2,54.9,29.74,SSE,162,0.0,0.0,67,0.00,,,0.01,LWC V2.11 B50,2013-07-04 08:35:00,
2013-07-04 02:40:00,66.1,54.8,29.73,SSE,162,0.0,0.0,67,0.00,,,0.01,LWC V2.11 B50,2013-07-04 08:40:00,
2013-07-04 02:45:00,66.1,55.2,29.74,SSE,162,0.0,0.0,68,0.00,,,0.01,LWC V2.11 B50,2013-07-04 08:45:00,
2013-07-04 02:50:00,66.0,55.1,29.73,SSE,162,0.0,0.0,68,0.00,,,0.01,LWC V2.11 B50,2013-07-04 08:50:00,
2013-07-04 02:55:00,65.9,55.0,29.73,SSE,162,0.0,0.0,68,0.00,,,0.01,LWC V2.11 B50,2013-07-04 08:55:00,
2013-07-04 03:00:00,65.6,55.1,29.73,SSE,162,0.0,0.0,69,0.00,,,0.01,LWC V2.11 B50,2013-07-04 09:00:00,
2013-07-04 03:05:00,65.4,55.4,29.72,SSE,162,0.0,0.0,70,0.00,,,0.01,LWC V2.11 B50,2013-07-04 09:05:00,
2013-07-04 03:10:00,65.1,55.1,29.72,SSE,162,0.0,0.0,70,0.00,,,0.01,LWC V2.11 B50,2013-07-04 09:10:00,
2013-07-04 03:15:00,64.8,55.2,29.71,SSE,162,0.0,0.0,71,0.00,,,0.01,LWC V2.11 B50,2013-07-04 09:15:00,
2013-07-04 03:20:00,64.5,54.9,29.71,SSE,162,0.0,0.0,71,0.00,,,0.01,LWC V2.11 B50,2013-07-04 09:20:00,
2013-07-04 03:25:00,64.2,54.6,29.71,SSE,162,0.0,0.0,71,0.00,,,0.01,LWC V2.11 B50,2013-07-04 09:25:00,
2013-07-04 03:30:00,63.9,54.7,29.71,SSE,162,0.0,0.0,72,0.00,,,0.01,LWC V2.11 B50,2013-07-04 09:30:00,
2013-07-04 03:35:00,63.6,54.4,29.71,SSE,162,0.0,0.0,72,0.00,,,0.01,LWC V2.11 B50,2013-07-04 09:35:00,
2013-07-04 03:40:00,63.4,54.2,29.71,SSE,162,0.0,0.0,72,0.00,,,0.01,LWC V2.11 B50,2013-07-04 09:40:00,
2013-07-04 03:45:00,63.4,53.8,29.71,SSE,162,0.0,1.0,71,0.00,,,0.01,LWC V2.11 B50,2013-07-04 09:45:00,
2013-07-04 03:50:00,63.3,54.1,29.71,SSE,162,0.0,0.0,72,0.00,,,0.01,LWC V2.11 B50,2013-07-04 09:50:00,
2013-07-04 03:55:00,63.3,54.1,29.71,SSE,162,0.0,0.0,72,0.00,,,0.01,LWC V2.11 B50,2013-07-04 09:55:00,
2013-07-04 04:00:00,63.3,54.1,29.71,SSE,162,0.0,0.0,72,0.00,,,0.01,LWC V2.11 B50,2013-07-04 10:00:00,
2013-07-04 04:05:00,63.3,54.1,29.71,SSE,162,0.0,0.0,72,0.00,,,0.01,LWC V2.11 B50,2013-07-04 10:05:00,
2013-07-04 04:10:00,63.4,54.2,29.71,SSE,162,0.0,0.0,72,0.00,,,0.01,LWC V2.11 B50,2013-07-04 10:10:00,
2013-07-04 04:15:00,63.3,54.1,29.71,SSE,162,0.0,0.0,72,0.00,,,0.01,LWC V2.11 B50,2013-07-04 10:15:00,
2013-07-04 04:20:00,63.2,54.0,29.71,SSE,162,0.0,0.0,72,0.00,,,0.01,LWC V2.11 B50,2013-07-04 10:20:00,
2013-07-04 04:25:00,63.0,54.2,29.71,SSE,162,0.0,0.0,73,0.00,,,0.01,LWC V2.11 B50,2013-07-04 10:25:00,
2013-07-04 04:30:00,62.8,54.0,29.70,SSE,162,0.0,0.0,73,0.00,,,0.01,LWC V2.11 B50,2013-07-04 10:30:00,
2013-07-04 04:35:00,62.8,54.0,29.70,SSE,162,0.0,0.0,73,0.00,,,0.01,LWC V2.11 B50,2013-07-04 10:35:00,
2013-07-04 04:40:00,62.8,54.0,29.70,SSE,162,0.0,0.0,73,0.00,,,0.01,LWC V2.11 B50,2013-07-04 10:40:00,
2013-07-04 04:45:00,62.9,54.1,29.71,SSE,162,0.0,0.0,73,0.00,,,0.01,LWC V2.11 B50,2013-07-04 10:45:00,
2013-07-04 04:50:00,62.8,54.0,29.71,SSE,162,0.0,0.0,73,0.00,,,0.01,LWC V2.11 B50,2013-07-04 10:50:00,
2013-07-04 04:55:00,62.7,53.9,29.72,SSE,162,0.0,0.0,73,0.00,,,0.01,LWC V2.11 B50,2013-07-04 10:55:00,
2013-07-04 05:00:00,62.6,54.2,29.71,SSE,162,0.0,0.0,74,0.00,,,0.01,LWC V2.11 B50,2013-07-04 11:00:00,
2013-07-04 05:05:00,62.3,53.9,29.71,SSE,162,0.0,0.0,74,0.00,,,0.01,LWC V2.11 B50,2013-07-04 11:05:00,
2013-07-04 05:10:00,62.1,53.7,29.71,SSE,162,0.0,0.0,74,0.00,,,0.01,LWC V2.11 B50,2013-07-04 11:10:00,
2013-07-04 05:15:00,61.9,53.5,29.71,SSE,162,0.0,0.0,74,0.00,,,0.01,LWC V2.11 B50,2013-07-04 11:15:00,
2013-07-04 05:20:00,61.7,53.7,29.71,SSE,162,0.0,0.0,75,0.00,,,0.01,LWC V2.11 B50,2013-07-04 11:20:00,
2013-07-04 05:25:00,61.6,53.6,29.71,SSE,162,0.0,0.0,75,0.00,,,0.01,LWC V2.11 B50,2013-07-04 11:25:00,
2013-07-04 05:30:00,61.6,53.6,29.71,SSE,162,0.0,0.0,75,0.00,,,0.01,LWC V2.11 B50,2013-07-04 11:30:00,
2013-07-04 05:35:00,61.6,53.6,29.72,SSE,162,0.0,0.0,75,0.00,,,0.01,LWC V2.11 B50,2013-07-04 11:35:00,
2013-07-04 05:40:00,61.4,53.4,29.72,SSE,162,0.0,0.0,75,0.00,,,0.01,LWC V2.11 B50,2013-07-04 11:40:00,
2013-07-04 05:45:00,61.3,53.3,29.72,SSE,162,0.0,0.0,75,0.00,,,0.01,LWC V2.11 B50,2013-07-04 11:45:00,
2013-07-04 05:50:00,61.2,53.6,29.72,SSE,162,0.0,0.0,76,0.00,,,0.01,LWC V2.11 B50,2013-07-04 11:50:00,
2013-07-04 05:55:00,61.4,53.8,29.72,SSE,162,0.0,0.0,76,0.00,,,0.01,LWC V2.11 B50,2013-07-04 11:55:00,
2013-07-04 06:00:00,61.5,53.5,29.72,SSE,162,0.0,0.0,75,0.00,,,0.01,LWC V2.11 B50,2013-07-04 12:00:00,
2013-07-04 06:05:00,61.5,53.1,29.72,SSE,162,0.0,0.0,74,0.00,,,0.01,LWC V2.11 B50,2013-07-04 12:05:00,
2013-07-04 06:10:00,61.4,53.0,29.72,SSE,162,0.0,0.0,74,0.00,,,0.01,LWC V2.11 B50,2013-07-04 12:10:00,
2013-07-04 06:15:00,61.3,53.3,29.72,SSE,162,0.0,0.0,75,0.00,,,0.01,LWC V2.11 B50,2013-07-04 12:15:00,
2013-07-04 06:20:00,61.3,53.7,29.72,SSE,162,0.0,0.0,76,0.00,,,0.01,LWC V2.11 B50,2013-07-04 12:20:00,
2013-07-04 06:25:00,61.3,53.3,29.72,SSE,162,0.0,0.0,75,0.00,,,0.01,LWC V2.11 B50,2013-07-04 12:25:00,
2013-07-04 06:30:00,61.4,53.4,29.72,SSE,162,0.0,0.0,75,0.00,,,0.01,LWC V2.11 B50,2013-07-04 12:30:00,
2013-07-04 06:35:00,61.4,53.8,29.72,SSE,162,0.0,0.0,76,0.00,,,0.01,LWC V2.11 B50,2013-07-04 12:35:00,
2013-07-04 06:40:00,61.5,53.9,29.73,SSE,162,0.0,0.0,76,0.00,,,0.01,LWC V2.11 B50,2013-07-04 12:40:00,
2013-07-04 06:45:00,61.6,54.0,29.73,SSE,162,0.0,0.0,76,0.00,,,0.01,LWC V2.11 B50,2013-07-04 12:45:00,
2013-07-04 06:50:00,61.7,53.7,29.72,SSE,162,0.0,0.0,75,0.00,,,0.01,LWC V2.11 B50,2013-07-04 12:50:00,
2013-07-04 06:55:00,61.9,53.9,29.72,SSE,162,0.0,0.0,75,0.00,,,0.01,LWC V2.11 B50,2013-07-04 12:55:00,
2013-07-04 07:00:00,62.2,54.2,29.73,SSE,159,0.0,0.0,75,0.00,,,0.01,LWC V2.11 B50,2013-07-04 13:00:00,
2013-07-04 07:05:00,62.6,54.9,29.73,SE,146,0.0,1.0,76,0.00,,,0.01,LWC V2.11 B50,2013-07-04 13:05:00,
2013-07-04 07:10:00,63.0,55.3,29.73,SE,132,0.0,0.0,76,0.00,,,0.01,LWC V2.11 B50,2013-07-04 13:10:00,
2013-07-04 07:15:00,63.4,55.7,29.73,SE,132,0.0,0.0,76,0.00,,,0.01,LWC V2.11 B50,2013-07-04 13:15:00,
2013-07-04 07:20:00,63.8,56.1,29.73,SE,128,0.0,0.0,76,0.00,,,0.01,LWC V2.11 B50,2013-07-04 13:20:00,
2013-07-04 07:25:00,64.2,56.1,29.73,NNE,18,1.0,3.0,75,0.00,,,0.01,LWC V2.11 B50,2013-07-04 13:25:00,
2013-07-04 07:30:00,64.6,55.7,29.74,NNE,22,2.0,3.0,73,0.00,,,0.01,LWC V2.11 B50,2013-07-04 13:30:00,
2013-07-04 07:35:00,64.9,56.0,29.74,NNE,33,0.0,3.0,73,0.00,,,0.01,LWC V2.11 B50,2013-07-04 13:35:00,
2013-07-04 07:40:00,65.3,56.0,29.74,NE,42,1.0,2.0,72,0.00,,,0.01,LWC V2.11 B50,2013-07-04 13:40:00,
2013-07-04 07:45:00,65.8,56.1,29.74,NNE,19,2.0,3.0,71,0.00,,,0.01,LWC V2.11 B50,2013-07-04 13:45:00,
2013-07-04 07:50:00,66.3,56.2,29.74,NE,36,1.0,1.0,70,0.00,,,0.01,LWC V2.11 B50,2013-07-04 13:50:00,
2013-07-04 07:55:00,66.9,56.8,29.74,NE,41,0.0,1.0,70,0.00,,,0.01,LWC V2.11 B50,2013-07-04 13:55:00,
2013-07-04 08:00:00,67.4,56.5,29.74,NE,39,0.0,1.0,68,0.00,,,0.01,LWC V2.11 B50,2013-07-04 14:00:00,
2013-07-04 08:05:00,68.0,56.2,29.74,NNE,30,0.0,1.0,66,0.00,,,0.01,LWC V2.11 B50,2013-07-04 14:05:00,
2013-07-04 08:10:00,68.6,56.4,29.75,NNE,31,0.0,1.0,65,0.00,,,0.01,LWC V2.11 B50,2013-07-04 14:10:00,
2013-07-04 08:15:00,69.5,56.3,29.75,NNE,15,0.0,1.0,63,0.00,,,0.01,LWC V2.11 B50,2013-07-04 14:15:00,
2013-07-04 08:20:00,70.3,56.7,29.75,NNE,26,0.0,0.0,62,0.00,,,0.01,LWC V2.11 B50,2013-07-04 14:20:00,
2013-07-04 08:25:00,71.0,56.4,29.75,NNE,26,0.0,0.0,60,0.00,,,0.01,LWC V2.11 B50,2013-07-04 14:25:00,
2013-07-04 08:30:00,71.4,56.8,29.75,NNE,26,0.0,0.0,60,0.00,,,0.01,LWC V2.11 B50,2013-07-04 14:30:00,
2013-07-04 08:35:00,71.9,55.8,29.75,NNE,30,0.0,1.0,57,0.00,,,0.01,LWC V2.11 B50,2013-07-04 14:35:00,
2013-07-04 08:40:00,72.4,56.8,29.75,NNE,30,0.0,1.0,58,0.00,,,0.01,LWC V2.11 B50,2013-07-04 14:40:00,
2013-07-04 08:45:00,72.9,56.3,29.75,NE,34,0.0,0.0,56,0.00,,,0.01,LWC V2.11 B50,2013-07-04 14:45:00,
2013-07-04 08:50:00,73.5,56.8,29.76,ESE,116,0.0,0.0,56,0.00,,,0.01,LWC V2.11 B50,2013-07-04 14:50:00,
2013-07-04 08:55:00,74.2,58.0,29.75,ESE,116,0.0,0.0,57,0.00,,,0.01,LWC V2.11 B50,2013-07-04 14:55:00,
2013-07-04 09:00:00,75.0,56.2,29.75,ESE,116,0.0,0.0,52,0.00,,,0.01,LWC V2.11 B50,2013-07-04 15:00:00,
2013-07-04 09:05:00,75.6,56.7,29.75,NE,37,0.0,0.0,52,0.00,,,0.01,LWC V2.11 B50,2013-07-04 15:05:00,
2013-07-04 09:10:00,75.9,55.9,29.75,NNW,333,0.0,0.0,50,0.00,,,0.01,LWC V2.11 B50,2013-07-04 15:10:00,
2013-07-04 09:15:00,75.7,57.3,29.75,North,355,0.0,0.0,53,0.00,,,0.01,LWC V2.11 B50,2013-07-04 15:15:00,
2013-07-04 09:20:00,76.0,56.5,29.75,ESE,113,0.0,2.0,51,0.00,,,0.01,LWC V2.11 B50,2013-07-04 15:20:00,
2013-07-04 09:25:00,76.4,56.9,29.75,ENE,63,0.0,0.0,51,0.00,,,0.01,LWC V2.11 B50,2013-07-04 15:25:00,
2013-07-04 09:30:00,76.9,56.8,29.75,NE,35,0.0,0.0,50,0.00,,,0.01,LWC V2.11 B50,2013-07-04 15:30:00,
2013-07-04 09:35:00,77.3,56.1,29.74,SSE,149,3.0,3.0,48,0.00,,,0.01,LWC V2.11 B50,2013-07-04 15:35:00,
2013-07-04 09:40:00,77.5,56.2,29.74,ESE,107,0.0,0.0,48,0.00,,,0.01,LWC V2.11 B50,2013-07-04 15:40:00,
2013-07-04 09:45:00,77.7,58.1,29.74,South,188,0.0,0.0,51,0.00,,,0.01,LWC V2.11 B50,2013-07-04 15:45:00,
2013-07-04 09:50:00,77.8,55.3,29.74,South,183,0.0,0.0,46,0.00,,,0.01,LWC V2.11 B50,2013-07-04 15:50:00,
2013-07-04 09:55:00,77.9,56.0,29.74,ESE,119,0.0,0.0,47,0.00,,,0.01,LWC V2.11 B50,2013-07-04 15:55:00,
2013-07-04 10:00:00,78.4,55.9,29.74,SE,142,0.0,1.0,46,0.00,,,0.01,LWC V2.11 B50,2013-07-04 16:00:00,
2013-07-04 10:05:00,78.7,56.8,29.74,ESE,117,0.0,0.0,47,0.00,,,0.01,LWC V2.11 B50,2013-07-04 16:05:00,
2013-07-04 10:10:00,79.0,58.2,29.74,South,175,0.0,0.0,49,0.00,,,0.01,LWC V2.11 B50,2013-07-04 16:10:00,
2013-07-04 10:15:00,79.3,56.1,29.74,ESE,117,0.0,1.0,45,0.00,,,0.01,LWC V2.11 B50,2013-07-04 16:15:00,
2013-07-04 10:20:00,79.2,54.7,29.74,SE,130,1.0,1.0,43,0.00,,,0.01,LWC V2.11 B50,2013-07-04 16:20:00,
2013-07-04 10:25:00,79.3,56.1,29.74,SSE,168,0.0,2.0,45,0.00,,,0.01,LWC V2.11 B50,2013-07-04 16:25:00,
2013-07-04 10:30:00,79.5,54.4,29.74,South,169,0.0,2.0,42,0.00,,,0.01,LWC V2.11 B50,2013-07-04 16:30:00,
2013-07-04 10:35:00,80.0,54.8,29.74,South,169,0.0,2.0,42,0.00,,,0.01,LWC V2.11 B50,2013-07-04 16:35:00,
2013-07-04 10:40:00,80.1,54.2,29.74,SSE,157,0.0,1.0,41,0.00,,,0.01,LWC V2.11 B50,2013-07-04 16:40:00,
2013-07-04 10:45:00,80.3,53.1,29.73,ESE,117,1.0,2.0,39,0.00,,,0.01,LWC V2.11 B50,2013-07-04 16:45:00,
2013-07-04 10:50:00,80.7,53.4,29.73,South,189,2.0,5.0,39,0.00,,,0.01,LWC V2.11 B50,2013-07-04 16:50:00,
2013-07-04 10:55:00,81.0,53.7,29.73,ESE,120,0.0,0.0,39,0.00,,,0.01,LWC V2.11 B50,2013-07-04 16:55:00,
2013-07-04 11:00:00,81.5,54.8,29.73,SSE,161,0.0,1.0,40,0.00,,,0.01,LWC V2.11 B50,2013-07-04 17:00:00,
2013-07-04 11:05:00,82.0,53.1,29.73,South,181,0.0,4.0,37,0.00,,,0.01,LWC V2.11 B50,2013-07-04 17:05:00,
2013-07-04 11:10:00,82.4,54.2,29.73,SSE,162,0.0,1.0,38,0.00,,,0.01,LWC V2.11 B50,2013-07-04 17:10:00,
2013-07-04 11:15:00,82.5,55.7,29.73,South,188,0.0,0.0,40,0.00,,,0.01,LWC V2.11 B50,2013-07-04 17:15:00,
2013-07-04 11:20:00,82.7,53.0,29.73,SE,126,2.0,2.0,36,0.00,,,0.01,LWC V2.11 B50,2013-07-04 17:20:00,
2013-07-04 11:25:00,83.0,53.3,29.73,ESE,110,0.0,4.0,36,0.00,,,0.01,LWC V2.11 B50,2013-07-04 17:25:00,
2013-07-04 11:30:00,83.4,55.1,29.73,ESE,107,0.0,0.0,38,0.00,,,0.01,LWC V2.11 B50,2013-07-04 17:30:00,
2013-07-04 11:35:00,83.7,53.1,29.73,ESE,117,0.0,1.0,35,0.00,,,0.01,LWC V2.11 B50,2013-07-04 17:35:00,
2013-07-04 11:40:00,84.0,54.1,29.72,SSE,148,0.0,1.0,36,0.00,,,0.01,LWC V2.11 B50,2013-07-04 17:40:00,
2013-07-04 11:45:00,84.2,55.1,29.72,ESE,114,0.0,2.0,37,0.00,,,0.01,LWC V2.11 B50,2013-07-04 17:45:00,
2013-07-04 11:50:00,84.2,52.8,29.72,ESE,106,0.0,0.0,34,0.00,,,0.01,LWC V2.11 B50,2013-07-04 17:50:00,
2013-07-04 11:55:00,84.1,54.2,29.72,ESE,113,0.0,0.0,36,0.00,,,0.01,LWC V2.11 B50,2013-07-04 17:55:00,
2013-07-04 12:00:00,84.3,54.4,29.72,ESE,107,0.0,1.0,36,0.00,,,0.01,LWC V2.11 B50,2013-07-04 18:00:00,
2013-07-04 12:05:00,84.6,53.1,29.72,ESE,121,0.0,2.0,34,0.00,,,0.01,LWC V2.11 B50,2013-07-04 18:05:00,
2013-07-04 12:10:00,84.8,53.3,29.71,SE,128,0.0,2.0,34,0.00,,,0.01,LWC V2.11 B50,2013-07-04 18:10:00,
2013-07-04 12:15:00,85.3,53.7,29.71,SSE,163,0.0,2.0,34,0.00,,,0.01,LWC V2.11 B50,2013-07-04 18:15:00,
2013-07-04 12:20:00,85.6,54.0,29.71,ESE,111,0.0,1.0,34,0.00,,,0.01,LWC V2.11 B50,2013-07-04 18:20:00,
2013-07-04 12:25:00,85.8,50.7,29.71,ESE,107,0.0,1.0,30,0.00,,,0.01,LWC V2.11 B50,2013-07-04 18:25:00,
2013-07-04 12:26:00,85.9,50.8,29.71,East,95,0.0,1.0,30,0.00,,,0.01,LWC V2.11 B50,2013-07-04 18:26:00,
2013-07-04 12:31:00,86.2,51.1,29.71,SSE,162,2.0,2.0,30,0.00,,,0.01,LWC V2.11 B50,2013-07-04 18:31:00,
2013-07-04 12:36:00,86.3,52.1,29.71,ESE,108,1.0,5.0,31,0.00,,,0.01,LWC V2.11 B50,2013-07-04 18:36:00,
2013-07-04 12:41:00,86.4,51.3,29.70,ENE,63,1.0,1.0,30,0.00,,,0.01,LWC V2.11 B50,2013-07-04 18:41:00,
2013-07-04 12:46:00,86.6,51.4,29.70,NE,43,1.0,1.0,30,0.00,,,0.01,LWC V2.11 B50,2013-07-04 18:46:00,
2013-07-04 12:51:00,87.0,52.7,29.70,NE,44,1.0,1.0,31,0.00,,,0.01,LWC V2.11 B50,2013-07-04 18:51:00,
2013-07-04 12:56:00,87.4,50.3,29.70,East,88,1.0,2.0,28,0.00,,,0.01,LWC V2.11 B50,2013-07-04 18:56:00,
2013-07-04 13:01:00,87.6,49.4,29.69,South,178,0.0,3.0,27,0.00,,,0.01,LWC V2.11 B50,2013-07-04 19:01:00,
2013-07-04 13:06:00,87.7,49.5,29.69,ESE,113,1.0,2.0,27,0.00,,,0.01,LWC V2.11 B50,2013-07-04 19:06:00,
2013-07-04 13:11:00,87.7,50.5,29.69,ESE,109,0.0,1.0,28,0.00,,,0.01,LWC V2.11 B50,2013-07-04 19:11:00,
2013-07-04 13:16:00,88.2,48.9,29.69,NNE,27,0.0,1.0,26,0.00,,,0.01,LWC V2.11 B50,2013-07-04 19:16:00,
2013-07-04 13:21:00,88.8,50.5,29.68,South,185,0.0,5.0,27,0.00,,,0.01,LWC V2.11 B50,2013-07-04 19:21:00,
2013-07-04 13:26:00,89.1,50.7,29.68,SE,125,0.0,3.0,27,0.00,,,0.01,LWC V2.11 B50,2013-07-04 19:26:00,
2013-07-04 13:31:00,89.3,48.8,29.68,South,175,0.0,4.0,25,0.00,,,0.01,LWC V2.11 B50,2013-07-04 19:31:00,
2013-07-04 13:36:00,89.4,47.8,29.68,South,172,0.0,0.0,24,0.00,,,0.01,LWC V2.11 B50,2013-07-04 19:36:00,
2013-07-04 13:41:00,89.7,49.2,29.68,SE,145,0.0,2.0,25,0.00,,,0.01,LWC V2.11 B50,2013-07-04 19:41:00,
2013-07-04 13:46:00,89.9,50.4,29.68,SW,223,0.0,1.0,26,0.00,,,0.01,LWC V2.11 B50,2013-07-04 19:46:00,
2013-07-04 13:51:00,90.1,49.5,29.67,West,268,0.0,3.0,25,0.00,,,0.01,LWC V2.11 B50,2013-07-04 19:51:00,
2013-07-04 13:56:00,90.6,49.9,29.67,SSE,159,2.0,5.0,25,0.00,,,0.01,LWC V2.11 B50,2013-07-04 19:56:00,
2013-07-04 14:01:00,90.9,52.2,29.67,WSW,242,0.0,0.0,27,0.00,,,0.01,LWC V2.11 B50,2013-07-04 20:01:00,
2013-07-04 14:06:00,91.0,51.3,29.67,South,174,4.0,10.0,26,0.00,,,0.01,LWC V2.11 B50,2013-07-04 20:06:00,
2013-07-04 14:11:00,91.0,50.2,29.67,ESE,103,0.0,4.0,25,0.00,,,0.01,LWC V2.11 B50,2013-07-04 20:11:00,
2013-07-04 14:16:00,90.9,51.2,29.66,South,178,0.0,4.0,26,0.00,,,0.01,LWC V2.11 B50,2013-07-04 20:16:00,
2013-07-04 14:21:00,90.9,50.2,29.66,SE,144,0.0,1.0,25,0.00,,,0.01,LWC V2.11 B50,2013-07-04 20:21:00,
2013-07-04 14:26:00,91.0,51.3,29.66,SSW,209,0.0,2.0,26,0.00,,,0.01,LWC V2.11 B50,2013-07-04 20:26:00,
2013-07-04 14:31:00,91.3,48.3,29.66,SSE,167,0.0,4.0,23,0.00,,,0.01,LWC V2.11 B50,2013-07-04 20:31:00,
2013-07-04 14:36:00,91.3,49.4,29.66,SE,142,0.0,3.0,24,0.00,,,0.01,LWC V2.11 B50,2013-07-04 20:36:00,
2013-07-04 14:41:00,91.4,48.3,29.65,SSE,153,0.0,4.0,23,0.00,,,0.01,LWC V2.11 B50,2013-07-04 20:41:00,
2013-07-04 14:46:00,91.7,48.6,29.65,SSE,156,2.0,2.0,23,0.00,,,0.01,LWC V2.11 B50,2013-07-04 20:46:00,
2013-07-04 14:51:00,91.8,46.3,29.65,SSE,157,0.0,5.0,21,0.00,,,0.01,LWC V2.11 B50,2013-07-04 20:51:00,
2013-07-04 14:56:00,92.0,47.7,29.65,SSW,208,0.0,3.0,22,0.00,,,0.01,LWC V2.11 B50,2013-07-04 20:56:00,
2013-07-04 15:01:00,92.0,45.1,29.65,West,275,0.0,2.0,20,0.00,,,0.01,LWC V2.11 B50,2013-07-04 21:01:00,
2013-07-04 15:06:00,91.8,45.0,29.65,WSW,243,0.0,1.0,20,0.00,,,0.01,LWC V2.11 B50,2013-07-04 21:06:00,
2013-07-04 15:11:00,91.9,46.3,29.65,South,181,0.0,0.0,21,0.00,,,0.01,LWC V2.11 B50,2013-07-04 21:11:00,
2013-07-04 15:16:00,92.3,46.7,29.65,SSW,194,0.0,3.0,21,0.00,,,0.01,LWC V2.11 B50,2013-07-04 21:16:00,
2013-07-04 15:21:00,92.7,45.7,29.64,South,169,0.0,1.0,20,0.00,,,0.01,LWC V2.11 B50,2013-07-04 21:21:00,
2013-07-04 15:26:00,92.9,44.5,29.64,NNE,20,0.0,4.0,19,0.00,,,0.01,LWC V2.11 B50,2013-07-04 21:26:00,
2013-07-04 15:31:00,93.2,47.4,29.63,NNE,16,0.0,3.0,21,0.00,,,0.01,LWC V2.11 B50,2013-07-04 21:31:00,
2013-07-04 15:36:00,93.6,45.1,29.63,NE,45,5.0,6.0,19,0.00,,,0.01,LWC V2.11 B50,2013-07-04 21:36:00,
2013-07-04 15:41:00,93.6,42.2,29.63,NE,35,1.0,8.0,17,0.00,,,0.01,LWC V2.11 B50,2013-07-04 21:41:00,
2013-07-04 15:46:00,93.6,43.7,29.63,NE,39,0.0,1.0,18,0.00,,,0.01,LWC V2.11 B50,2013-07-04 21:46:00,
2013-07-04 15:51:00,93.7,42.3,29.62,NW,316,1.0,3.0,17,0.00,,,0.01,LWC V2.11 B50,2013-07-04 21:51:00,
2013-07-04 15:56:00,93.6,42.2,29.62,SSW,193,3.0,3.0,17,0.00,,,0.01,LWC V2.11 B50,2013-07-04 21:56:00,
2013-07-04 16:01:00,93.5,45.0,29.62,SSE,151,0.0,1.0,19,0.00,,,0.01,LWC V2.11 B50,2013-07-04 22:01:00,
2013-07-04 16:06:00,93.6,43.7,29.62,ESE,121,1.0,3.0,18,0.00,,,0.01,LWC V2.11 B50,2013-07-04 22:06:00,
2013-07-04 16:11:00,93.6,43.7,29.61,ESE,111,0.0,0.0,18,0.00,,,0.01,LWC V2.11 B50,2013-07-04 22:11:00,
2013-07-04 16:16:00,93.3,43.4,29.61,SSW,212,0.0,0.0,18,0.00,,,0.01,LWC V2.11 B50,2013-07-04 22:16:00,
2013-07-04 16:21:00,92.9,41.6,29.61,South,173,1.0,5.0,17,0.00,,,0.01,LWC V2.11 B50,2013-07-04 22:21:00,
2013-07-04 16:26:00,92.7,42.9,29.61,South,169,2.0,3.0,18,0.00,,,0.01,LWC V2.11 B50,2013-07-04 22:26:00,
2013-07-04 16:31:00,92.5,42.8,29.60,ESE,120,0.0,2.0,18,0.00,,,0.01,LWC V2.11 B50,2013-07-04 22:31:00,
2013-07-04 16:36:00,92.2,44.0,29.60,ESE,117,0.0,7.0,19,0.00,,,0.01,LWC V2.11 B50,2013-07-04 22:36:00,
2013-07-04 16:41:00,92.0,42.4,29.60,ESE,115,0.0,1.0,18,0.00,,,0.01,LWC V2.11 B50,2013-07-04 22:41:00,
2013-07-04 16:46:00,91.9,42.3,29.60,SSE,157,1.0,1.0,18,0.00,,,0.01,LWC V2.11 B50,2013-07-04 22:46:00,
2013-07-04 16:51:00,91.6,43.5,29.60,SSE,154,0.0,1.0,19,0.00,,,0.01,LWC V2.11 B50,2013-07-04 22:51:00,
2013-07-04 16:56:00,91.3,43.2,29.60,SSE,168,0.0,1.0,19,0.00,,,0.01,LWC V2.11 B50,2013-07-04 22:56:00,
2013-07-04 17:01:00,91.1,44.4,29.59,ESE,110,0.0,3.0,20,0.00,,,0.01,LWC V2.11 B50,2013-07-04 23:01:00,
2013-07-04 17:06:00,91.0,43.0,29.59,South,184,2.0,2.0,19,0.00,,,0.01,LWC V2.11 B50,2013-07-04 23:06:00,
2013-07-04 17:11:00,90.8,42.8,29.59,South,184,0.0,2.0,19,0.00,,,0.01,LWC V2.11 B50,2013-07-04 23:11:00,
2013-07-04 17:16:00,90.6,42.7,29.59,SSE,161,3.0,4.0,19,0.00,,,0.01,LWC V2.11 B50,2013-07-04 23:16:00,
2013-07-04 17:21:00,90.5,43.9,29.59,ESE,115,0.0,2.0,20,0.00,,,0.01,LWC V2.11 B50,2013-07-04 23:21:00,
2013-07-04 17:26:00,90.4,43.8,29.59,South,186,0.0,4.0,20,0.00,,,0.01,LWC V2.11 B50,2013-07-04 23:26:00,
2013-07-04 17:31:00,90.5,43.9,29.59,SSE,168,0.0,1.0,20,0.00,,,0.01,LWC V2.11 B50,2013-07-04 23:31:00,
2013-07-04 17:36:00,90.5,43.9,29.59,SE,124,0.0,0.0,20,0.00,,,0.01,LWC V2.11 B50,2013-07-04 23:36:00,
2013-07-04 17:41:00,90.5,42.6,29.59,South,171,0.0,1.0,19,0.00,,,0.01,LWC V2.11 B50,2013-07-04 23:41:00,
2013-07-04 17:46:00,90.5,42.6,29.59,SSE,159,1.0,1.0,19,0.00,,,0.01,LWC V2.11 B50,2013-07-04 23:46:00,
2013-07-04 17:51:00,90.4,42.5,29.59,SSE,161,0.0,1.0,19,0.00,,,0.01,LWC V2.11 B50,2013-07-04 23:51:00,
2013-07-04 17:56:00,90.2,44.9,29.59,SSE,156,2.0,5.0,21,0.00,,,0.01,LWC V2.11 B50,2013-07-04 23:56:00,
2013-07-04 18:01:00,90.0,46.0,29.59,SSE,161,0.0,7.0,22,0.00,,,0.01,LWC V2.11 B50,2013-07-05 00:01:00,
2013-07-04 18:06:00,89.7,45.8,29.59,SSE,149,3.0,9.0,22,0.00,,,0.01,LWC V2.11 B50,2013-07-05 00:06:00,
2013-07-04 18:11:00,89.4,45.5,29.59,ESE,105,3.0,6.0,22,0.00,,,0.01,LWC V2.11 B50,2013-07-05 00:11:00,
2013-07-04 18:16:00,89.2,45.3,29.59,SSE,158,0.0,3.0,22,0.00,,,0.01,LWC V2.11 B50,2013-07-05 00:16:00,
2013-07-04 18:21:00,89.2,45.3,29.59,SSE,168,1.0,4.0,22,0.00,,,0.01,LWC V2.11 B50,2013-07-05 00:21:00,
2013-07-04 18:26:00,89.0,46.4,29.59,SE,144,5.0,10.0,23,0.00,,,0.01,LWC V2.11 B50,2013-07-05 00:26:00,
2013-07-04 18:31:00,89.0,46.4,29.59,South,176,0.0,6.0,23,0.00,,,0.01,LWC V2.11 B50,2013-07-05 00:31:00,
2013-07-04 18:36:00,89.0,46.4,29.59,SSW,202,0.0,8.0,23,0.00,,,0.01,LWC V2.11 B50,2013-07-05 00:36:00,
2013-07-04 18:41:00,88.7,46.1,29.59,South,171,0.0,7.0,23,0.00,,,0.01,LWC V2.11 B50,2013-07-05 00:41:00,
2013-07-04 18:46:00,88.5,47.1,29.59,South,170,0.0,7.0,24,0.00,,,0.01,LWC V2.11 B50,2013-07-05 00:46:00,
2013-07-04 18:51:00,88.4,47.0,29.59,South,187,4.0,6.0,24,0.00,,,0.01,LWC V2.11 B50,2013-07-05 00:51:00,
2013-07-04 18:56:00,88.3,46.9,29.59,SSE,157,1.0,6.0,24,0.00,,,0.01,LWC V2.11 B50,2013-07-05 00:56:00,
2013-07-04 19:01:00,88.2,46.8,29.59,SSE,168,2.0,4.0,24,0.00,,,0.01,LWC V2.11 B50,2013-07-05 01:01:00,
2013-07-04 19:06:00,88.1,47.8,29.59,South,178,0.0,2.0,25,0.00,,,0.01,LWC V2.11 B50,2013-07-05 01:06:00,
2013-07-04 19:11:00,88.1,47.8,29.59,South,181,0.0,1.0,25,0.00,,,0.01,LWC V2.11 B50,2013-07-05 01:11:00,
2013-07-04 19:16:00,88.1,47.8,29.59,South,179,3.0,3.0,25,0.00,,,0.01,LWC V2.11 B50,2013-07-05 01:16:00,
2013-07-04 19:21:00,87.9,47.6,29.59,SSE,157,3.0,6.0,25,0.00,,,0.01,LWC V2.11 B50,2013-07-05 01:21:00,
2013-07-04 19:26:00,87.7,47.5,29.59,South,184,0.0,8.0,25,0.00,,,0.01,LWC V2.11 B50,2013-07-05 01:26:00,
2013-07-04 19:31:00,87.6,47.4,29.59,South,189,3.0,6.0,25,0.00,,,0.01,LWC V2.11 B50,2013-07-05 01:31:00,
2013-07-04 19:36:00,87.6,47.4,29.59,South,190,0.0,8.0,25,0.00,,,0.01,LWC V2.11 B50,2013-07-05 01:36:00,
2013-07-04 19:41:00,87.5,47.3,29.59,South,175,0.0,7.0,25,0.00,,,0.01,LWC V2.11 B50,2013-07-05 01:41:00,
2013-07-04 19:46:00,87.4,47.2,29.59,South,182,3.0,9.0,25,0.00,,,0.01,LWC V2.11 B50,2013-07-05 01:46:00,
2013-07-04 19:51:00,87.3,47.1,29.60,South,172,3.0,8.0,25,0.00,,,0.01,LWC V2.11 B50,2013-07-05 01:51:00,
2013-07-04 19:56:00,87.2,47.1,29.59,South,179,2.0,5.0,25,0.00,,,0.01,LWC V2.11 B50,2013-07-05 01:56:00,
2013-07-04 20:01:00,87.1,48.0,29.60,SSE,165,3.0,6.0,26,0.00,,,0.01,LWC V2.11 B50,2013-07-05 02:01:00,
2013-07-04 20:06:00,87.0,47.9,29.59,SSE,160,4.0,8.0,26,0.00,,,0.01,LWC V2.11 B50,2013-07-05 02:06:00,
2013-07-04 20:11:00,86.9,47.8,29.59,South,186,3.0,4.0,26,0.00,,,0.01,LWC V2.11 B50,2013-07-05 02:11:00,
2013-07-04 20:16:00,86.7,47.7,29.59,South,177,1.0,7.0,26,0.00,,,0.01,LWC V2.11 B50,2013-07-05 02:16:00,
2013-07-04 20:21:00,86.6,47.6,29.60,SSE,164,3.0,3.0,26,0.00,,,0.01,LWC V2.11 B50,2013-07-05 02:21:00,
2013-07-04 20:26:00,86.5,47.5,29.60,South,188,1.0,3.0,26,0.00,,,0.01,LWC V2.11 B50,2013-07-05 02:26:00,
2013-07-04 20:31:00,86.4,47.4,29.60,SSW,193,0.0,3.0,26,0.00,,,0.01,LWC V2.11 B50,2013-07-05 02:31:00,
2013-07-04 20:36:00,86.3,47.3,29.60,SSW,201,0.0,3.0,26,0.00,,,0.01,LWC V2.11 B50,2013-07-05 02:36:00,
2013-07-04 20:41:00,86.1,47.2,29.60,South,175,2.0,3.0,26,0.00,,,0.01,LWC V2.11 B50,2013-07-05 02:41:00,
2013-07-04 20:46:00,86.0,48.1,29.60,SSW,202,1.0,2.0,27,0.00,,,0.01,LWC V2.11 B50,2013-07-05 02:46:00,
2013-07-04 20:51:00,85.8,47.9,29.60,South,177,1.0,1.0,27,0.00,,,0.01,LWC V2.11 B50,2013-07-05 02:51:00,
2013-07-04 20:56:00,85.6,47.8,29.60,South,177,0.0,1.0,27,0.00,,,0.01,LWC V2.11 B50,2013-07-05 02:56:00,
2013-07-04 21:01:00,85.4,47.6,29.61,South,190,0.0,3.0,27,0.00,,,0.01,LWC V2.11 B50,2013-07-05 03:01:00,
2013-07-04 21:06:00,85.2,47.4,29.61,South,173,0.0,3.0,27,0.00,,,0.01,LWC V2.11 B50,2013-07-05 03:06:00,
2013-07-04 21:11:00,85.1,47.3,29.61,SSE,167,0.0,0.0,27,0.00,,,0.01,LWC V2.11 B50,2013-07-05 03:11:00,
2013-07-04 21:16:00,85.0,47.2,29.61,South,169,1.0,2.0,27,0.00,,,0.01,LWC V2.11 B50,2013-07-05 03:16:00,
2013-07-04 21:21:00,84.9,47.2,29.62,South,169,0.0,1.0,27,0.00,,,0.01,LWC V2.11 B50,2013-07-05 03:21:00,
2013-07-04 21:26:00,84.7,47.0,29.62,South,169,0.0,1.0,27,0.00,,,0.01,LWC V2.11 B50,2013-07-05 03:26:00,
2013-07-04 21:31:00,84.7,48.0,29.63,SSE,163,0.0,2.0,28,0.00,,,0.01,LWC V2.11 B50,2013-07-05 03:31:00,
2013-07-04 21:36:00,84.6,46.9,29.63,SSE,163,0.0,0.0,27,0.00,,,0.01,LWC V2.11 B50,2013-07-05 03:36:00,
2013-07-04 21:41:00,84.5,47.8,29.63,SSE,163,0.0,1.0,28,0.00,,,0.01,LWC V2.11 B50,2013-07-05 03:41:00,
2013-07-04 21:46:00,84.4,48.6,29.64,SSE,163,0.0,0.0,29,0.00,,,0.01,LWC V2.11 B50,2013-07-05 03:46:00,
2013-07-04 21:51:00,84.2,49.4,29.64,SSE,163,0.0,0.0,30,0.00,,,0.01,LWC V2.11 B50,2013-07-05 03:51:00,
2013-07-04 21:56:00,83.9,50.0,29.65,SSE,161,0.0,0.0,31,0.00,,,0.01,LWC V2.11 B50,2013-07-05 03:56:00,
2013-07-04 22:01:00,83.5,51.3,29.65,SSE,161,0.0,0.0,33,0.00,,,0.01,LWC V2.11 B50,2013-07-05 04:01:00,
2013-07-04 22:06:00,83.0,49.2,29.65,ESE,115,1.0,2.0,31,0.00,,,0.01,LWC V2.11 B50,2013-07-05 04:06:00,
2013-07-04 22:11:00,82.8,47.3,29.65,ESE,112,0.0,1.0,29,0.00,,,0.01,LWC V2.11 B50,2013-07-05 04:11:00,
2013-07-04 22:16:00,82.5,47.9,29.65,East,94,1.0,3.0,30,0.00,,,0.01,LWC V2.11 B50,2013-07-05 04:16:00,
2013-07-04 22:21:00,82.1,49.3,29.66,SSE,160,0.0,5.0,32,0.00,,,0.01,LWC V2.11 B50,2013-07-05 04:21:00,
2013-07-04 22:26:00,80.9,52.2,29.66,ESE,105,0.0,3.0,37,0.00,,,0.01,LWC V2.11 B50,2013-07-05 04:26:00,
2013-07-04 22:31:00,79.6,52.4,29.67,ENE,65,3.0,5.0,39,0.00,,,0.01,LWC V2.11 B50,2013-07-05 04:31:00,
2013-07-04 22:36:00,78.4,52.7,29.67,SSE,152,1.0,1.0,41,0.00,,,0.01,LWC V2.11 B50,2013-07-05 04:36:00,
2013-07-04 22:41:00,77.6,53.3,29.67,South,175,2.0,5.0,43,0.00,,,0.01,LWC V2.11 B50,2013-07-05 04:41:00,
2013-07-04 22:46:00,77.2,52.9,29.67,South,177,1.0,4.0,43,0.00,,,0.01,LWC V2.11 B50,2013-07-05 04:46:00,
2013-07-04 22:51:00,77.0,52.8,29.66,South,176,2.0,5.0,43,0.00,,,0.01,LWC V2.11 B50,2013-07-05 04:51:00,
2013-07-04 22:56:00,76.9,52.0,29.66,South,182,4.0,8.0,42,0.00,,,0.01,LWC V2.11 B50,2013-07-05 04:56:00,
2013-07-04 23:01:00,77.0,51.5,29.66,SSE,152,2.0,4.0,41,0.00,,,0.01,LWC V2.11 B50,2013-07-05 05:01:00,
2013-07-04 23:06:00,77.1,51.6,29.66,SSE,147,0.0,5.0,41,0.00,,,0.01,LWC V2.11 B50,2013-07-05 05:06:00,
2013-07-04 23:11:00,77.2,51.7,29.67,South,181,1.0,3.0,41,0.00,,,0.01,LWC V2.11 B50,2013-07-05 05:11:00,
2013-07-04 23:16:00,77.1,51.6,29.67,SE,126,0.0,1.0,41,0.00,,,0.01,LWC V2.11 B50,2013-07-05 05:16:00,
2013-07-04 23:21:00,77.0,50.8,29.67,South,178,2.0,6.0,40,0.00,,,0.01,LWC V2.11 B50,2013-07-05 05:21:00,
2013-07-04 23:26:00,77.0,51.5,29.68,SSE,148,1.0,2.0,41,0.00,,,0.01,LWC V2.11 B50,2013-07-05 05:26:00,
2013-07-04 23:31:00,77.0,51.5,29.67,SSE,147,3.0,9.0,41,0.00,,,0.01,LWC V2.11 B50,2013-07-05 05:31:00,
2013-07-04 23:36:00,76.9,51.4,29.68,SW,231,2.0,10.0,41,0.00,,,0.01,LWC V2.11 B50,2013-07-05 05:36:00,
2013-07-04 23:41:00,76.9,50.7,29.68,South,176,7.0,7.0,40,0.00,,,0.01,LWC V2.11 B50,2013-07-05 05:41:00,
2013-07-04 23:46:00,76.8,51.3,29.68,South,184,3.0,5.0,41,0.00,,,0.01,LWC V2.11 B50,2013-07-05 05:46:00,
2013-07-04 23:51:00,76.5,52.3,29.68,SSE,163,3.0,10.0,43,0.00,,,0.01,LWC V2.11 B50,2013-07-05 05:51:00,
2013-07-04 23:56:00,76.0,53.1,29.69,South,184,0.0,2.0,45,0.00,,,0.01,LWC V2.11 B50,2013-07-05 05:56:00,